THORAD AGENA D DEB, 42518

Orbit data source: Space-Track

THORAD AGENA D DEB, 42518 is space debris in SSO originally from a launch on Wed, 08 Apr 1970 UTC launched from the Air Force Western Test Range (AFWTR). Debris objects in space refer to the collection of defunct objects orbiting the Earth. Examples of debris include non-operational satellites, rocket bodies, and fragments generated from explosions, collisions, or faulty payload assembly.

Loading next visibility...
Identifier
42518, 1970-025RY
Orbit
SSO
Country
Flag of USUS
Related business
Manufacturer
Unknown
Mission
Spacecraft
Bus & Motor
Unknown
Mass
Unknown
Launch date (UTC)
1970-04-08 (56 years ago)
Launch vehicle
Unknown
Launch site
Air Force Western Test Range (AFWTR)
Object type
Payload
Rocket body
Debris
Shape & HBR
Unknown shape, 0.1 m
Radar Cross Section
Small (<0.1 m²)

Expand to show TLE details & history
Last TLE update: 2 weeks ago

TLE from 2 weeks ago
0 THORAD AGENA D DEB
1 42518U 70025RY  25276.30910903  .00009512  00000-0  65205-2 0  9998
2 42518 100.4283 295.1428 0068608  88.2700 272.6315 13.98649249257379
Epoch: 2025-10-03T07:25Z
TLE epoch observation values (Epoch: 2025-10-03T07:25:07.020Z)
Latitude
-0.00005°
Longitude
171.60629°
Altitude
899.352 km
Speed
7.403 km/s
True Right ascension
19h 40m 34s
True Declination
0° 00' 00"
Sunlit
Object was in daylight at epoch
Visualization orbit readout
Latitude
Unknown
Longitude
Unknown
Altitude
Unknown
Speed
Unknown
Apparent Right ascension
Unknown
Apparent Declination
Unknown
Sunlit
N/A
Visualization observer readout
Local Sidereal Time
02:54:46
Azimuth
Unknown
Elevation
Unknown
Doppler factor
Unknown
Orbital elements
Apogee altitude
945.657 km
Perigee altitude
845.848 km
Semi-major axis
7,273.89 km
Eccentricity
0.00686
Inclination
100.4283°
RAAN
295.1428°
Arg. of periapsis
88.27°
True anomaly
271.84585°
Mean anomaly
272.6315°
Eccentric anomaly
272.23871°
Mean motion
3.49859 °/min
Orbital period
102.9 mins
BSTAR
0.0065205

Documentation

Showing up to 5 results
|